Vuurbol meldingen

01 feb 2022 - 28 feb 2022
Verslagen gevonden: 1809  in februari 2022  Pagina 2 / 37
IDUT Datum & TijdLokale Datum & TijdLandStadStaatDuurMagn.D.GeluidC.GeluidFrag.WaarnemerNiveau ervaring
Gebeurtenis 1395-2022
1395a27/02/2022 20:50 UT27/02/2022 21:50 CETDK Hadsten? -8--?AgneteB 1
Gebeurtenis 1394-2022
1394a27/02/2022 02:45 UT27/02/2022 03:45 CETFR Bourg-de-PéageAuvergne-Rhône-Alpes≈3,5s -5--?AnonymA 1
Gebeurtenis 1393-2022
1393a26/02/2022 21:00 UT26/02/2022 21:00 GMTGB Paddock WoodEngland≈3,5s -7--MarcusS 3
Gebeurtenis 1392-2022
1392a26/02/2022 20:00 UT26/02/2022 21:00 CETNL Etten-LeurNoord-Brabant≈3,5s -12---TheoV 1
Gebeurtenis 1391-2022
1391a26/02/2022 11:30 UT26/02/2022 22:30 AEDTAU HowquaVictoria≈3,5s -5--DeanC 1
Gebeurtenis 1390-2022
1390a26/02/2022 00:30 UT26/02/2022 01:30 CETNL KrommenieNoord-Holland≈7,5s -8-KoS 3
Gebeurtenis 1389-2022
1389a25/02/2022 05:18 UT25/02/2022 00:18 ESTUS ShipshewanaIN≈3,5s -13--JohnH 2
Gebeurtenis 1388-2022
1388a22/02/2022 21:44 UT22/02/2022 22:44 CETFR WizernesHauts-de-France≈7,5s -15--Mathilde F 3
Gebeurtenis 1387-2022
1387a28/02/2022 17:49 UT28/02/2022 18:49 CETDE KirchheimThüringen≈7,5s -4??-JürgenS 4
1387b28/02/2022 17:49 UT28/02/2022 18:49 CETDE DemminMecklenburg-Vorpommern≈7,5s -6??-WolfgangH 4
1387c28/02/2022 17:49 UT28/02/2022 18:49 CETDE MallißMecklenburg-Vorpommern≈7,5s -6??-SirkoM 4
1387d28/02/2022 17:49 UT28/02/2022 18:49 CETDE TaucheBrandenburg≈7,5s -10??-AndréK 4
1387e28/02/2022 17:35 UT28/02/2022 18:35 CETDE BerlinBerlin≈3,5s -5---DustinB 1
1387f28/02/2022 17:49 UT28/02/2022 18:49 CETDE BeetzseeheideBrandenburg≈7,5s -8??-SirkoM 4
1387g28/02/2022 17:49 UT28/02/2022 18:49 CETDE RadebeulSachsen≈7,5s -7??-MartinF 4
1387h28/02/2022 17:49 UT28/02/2022 18:49 CETDE DrebachSachsen≈7,5s -7??-GerhardL 4
1387i28/02/2022 17:49 UT28/02/2022 18:49 CETDE SonnebergThüringen≈7,5s -5??-PeterK 5
Gebeurtenis 1385-2022
1385a01/03/2022 02:28 UT28/02/2022 18:28 PSTUS Los AngelesCA≈1,5s -12---natachaS 1
1385b01/03/2022 02:22 UT28/02/2022 18:22 PSTUS AltadenaCA≈3,5s -7--BrianB 2
1385c01/03/2022 02:05 UT28/02/2022 18:05 PSTUS Santa MonicaCA≈1,5s -4--?KatherineS 1
1385d01/03/2022 02:25 UT28/02/2022 18:25 PSTUS Los AngelesCA≈1,5s -10--TomasK 3
1385e01/03/2022 02:20 UT28/02/2022 18:20 PSTUS Los AngelesCA≈1,5s -13--CiciR 2
1385f01/03/2022 02:20 UT28/02/2022 18:20 PSTUS ClaremontCA≈3,5s -13---CCH 1
1385g01/03/2022 02:12 UT28/02/2022 18:12 PSTUS AnaheimCA≈3,5s -10---Beatrice W 3
1385h01/03/2022 02:15 UT28/02/2022 18:15 PSTUS CastaicCA≈1,5s -27??-MelissaM 4
1385i01/03/2022 02:19 UT28/02/2022 18:19 PSTUS Aliso ViejoCA≈1,5s -12--KevinS 3
1385j01/03/2022 02:25 UT28/02/2022 18:25 PSTUS HighlandCA≈3,5s -13--RicardoM 3
1385k01/03/2022 02:20 UT28/02/2022 18:20 PSTUS MurrietaCA≈3,5s -11???KatieR 1
1385l01/03/2022 02:26 UT28/02/2022 18:26 PSTUS Pismo BeachCA≈1,5s -12---SageC 3
1385m01/03/2022 02:30 UT28/02/2022 18:30 PSTUS TempletonCA≈3,5s -10?Christine F 3
1385n01/03/2022 02:24 UT28/02/2022 18:24 PSTUS KingsburgCA≈3,5s -5?-BrendaG 2
1385o01/03/2022 02:31 UT28/02/2022 18:31 PSTUS ModestoCA<1s -13---KellyH 1
1385p01/03/2022 02:24 UT28/02/2022 18:24 PSTUS Santa CruzCA≈1,5s 0---daniA 1
1385q01/03/2022 02:21 UT28/02/2022 18:21 PSTUS SalinasCA≈1,5s 0---FranciscoR 1
1385r01/03/2022 02:38 UT28/02/2022 18:38 PSTUS FresnoCA≈1,5s 0?-EmmanuelC 1
1385s01/03/2022 02:30 UT28/02/2022 19:30 MSTUS WickenburgAZ≈1,5s -13--?BonnieH 2
1385t01/03/2022 02:21 UT28/02/2022 18:21 PSTUS GilroyCA≈3,5s -18---sandra S 1
1385u01/03/2022 02:16 UT28/02/2022 18:16 PSTUS MindenNV≈3,5s -23---DebraM 1
1385v01/03/2022 02:17 UT28/02/2022 18:17 PSTUS GlendaleCA≈3,5s 0--JjR 2
1385w01/03/2022 02:22 UT28/02/2022 18:22 PSTUS Santa CruzCA≈1,5s -24-?-LindaO 1
1385x01/03/2022 02:21 UT28/02/2022 18:21 PSTUS Newport BeachCA≈3,5s -9--RobM 5
1385y01/03/2022 02:00 UT28/02/2022 18:00 PSTUS Thousand OaksCA≈1,5s -20--MelissaG 1
Gebeurtenis 1384-2022
1384a27/02/2022 05:05 UT27/02/2022 00:05 ESTUS OrlandoFL≈3,5s -5--?ERICP 1
Gebeurtenis 1383-2022
1383a28/02/2022 04:37 UT27/02/2022 22:37 CSTUS Bay CityTX≈1,5s -12??-emilyT 2
Gebeurtenis 1382-2022
1382a28/02/2022 04:34 UT27/02/2022 23:34 ESTUS Upper ArlingtonOH<1s -9-?JosephM 1
1382b28/02/2022 04:42 UT27/02/2022 23:42 ESTUS CincinnatiOH≈1,5s -17---BradM 2
1382c28/02/2022 04:43 UT27/02/2022 22:43 CSTUS La PorteIN≈7,5s -13-??CarissaS 2
1382d28/02/2022 04:50 UT27/02/2022 23:50 ESTUS ColumbusOH≈1,5s 0---Mary BethH 1
1382e28/02/2022 04:50 UT27/02/2022 23:50 ESTUS Grove CityOH≈1,5s -10--JarrodD 2
Gebeurtenis 1381-2022
1381a28/02/2022 03:12 UT27/02/2022 22:12 ESTUS BostonMA≈1,5s -12--?JohnM 1